Location: Budapest
(47.4979°N, 19.0402°E)
Time: 12:08:16
(UTC+02:00)

Tiangong 2 - Pass Details

Date: 08 October 2017
Orbit: 388 x 391 km, 42.8° (Epoch: 21 October)

Event Time Altitude Azimuth Distance (km) Brightness Sun altitude
Exits shadow 05:41:24 - 200° (SSW) 1,974 4.4 -12.8°
Reaches altitude 10° 05:43:46 10° 170° (S) 1,418 4.0 -12.4°
Maximum altitude 05:44:48 11° 151° (SSE) 1,349 4.1 -12.2°
Drops below altitude 10° 05:45:50 10° 132° (SE) 1,421 4.6 -12.1°
Sets 05:49:08 0° 96° (E) 2,281 6.9 -11.5°
